EW2516 Weather Reports


time (UTC)temp
C
wind
direction
speed
KPH
gust
KPH
rain 1hr
cm
rain 24hr
cm
rain mn
cm
humidity
%
barometer
mb
20260504081516 7 0 3.2 6.4 0.00 0.00 0.00 52 1020.6
20260504080516 7 0 1.6 4.8 0.00 0.00 0.00 52 1020.7
20260504050518 10 338 12.9 24.1 0.00 0.00 0.00 51 1019.4
20260504045517 10 338 11.3 22.5 0.00 0.00 0.00 49 1019.6
20260504044558 10 0 12.9 25.7 0.00 0.00 0.00 47 1019.4
20260504043517 10 0 12.9 29.0 0.00 0.00 0.00 47 1019.4
20260504042517 11 0 16.1 37.0 0.00 0.00 0.00 46 1019.2
20260504041518 11 0 14.5 32.2 0.00 0.00 0.00 45 1018.9
20260504040619 11 338 12.9 32.2 0.00 0.00 0.00 47 1018.7
20260504035517 11 0 14.5 25.7 0.00 0.00 0.00 46 1018.5
20260504034517 11 338 16.1 29.0 0.00 0.00 0.00 42 1018.1
20260504033517 11 0 17.7 27.4 0.00 0.00 0.00 41 1017.8
20260504032518 11 23 14.5 27.4 0.00 0.00 0.00 40 1017.3
20260504031600 12 23 12.9 29.0 0.00 0.00 0.00 40 1017.2
20260504030538 12 23 12.9 22.5 0.00 0.00 0.00 40 1017.1
20260504025539 12 23 14.5 24.1 0.00 0.00 0.00 39 1016.8
20260504024517 12 23 16.1 29.0 0.00 0.00 0.00 39 1016.6
20260504023517 12 23 14.5 19.3 0.00 0.00 0.00 38 1015.9
20260504022518 13 23 17.7 29.0 0.00 0.00 0.00 37 1015.9
20260504021517 13 23 14.5 27.4 0.00 0.00 0.00 37 1015.5
20260504020518 13 23 19.3 32.2 0.00 0.00 0.00 36 1015.7
20260504015518 14 23 14.5 24.1 0.00 0.00 0.00 36 1015.0
20260504014518 14 23 14.5 24.1 0.00 0.00 0.00 36 1014.7
20260504013519 14 23 17.7 27.4 0.00 0.00 0.00 36 1014.6
20260504012517 15 23 20.9 40.2 0.00 0.00 0.00 35 1014.3
20260504011517 15 45 24.1 35.4 0.00 0.00 0.00 34 1014.1
20260504010517 16 23 25.7 40.2 0.00 0.00 0.00 34 1014.4
20260504005517 16 23 19.3 33.8 0.00 0.00 0.00 34 1014.2
20260504004522 17 23 16.1 37.0 0.00 0.00 0.00 33 1014.2
20260504003518 17 23 17.7 30.6 0.00 0.00 0.00 34 1014.1
20260504002517 17 0 17.7 33.8 0.00 0.00 0.00 33 1013.8
20260504001517 17 23 17.7 35.4 0.00 0.00 0.00 33 1013.7
20260504000518 18 0 16.1 27.4 0.00 0.00 0.00 32 1013.6
20260503235522 18 0 19.3 33.8 0.00 0.00 0.00 31 1013.7
20260503234517 18 0 14.5 24.1 0.00 0.00 0.00 31 1013.3
20260503233517 18 338 16.1 38.6 0.00 0.00 0.00 32 1013.5
20260503232518 18 0 16.1 27.4 0.00 0.00 0.00 33 1013.5
20260503231517 18 0 16.1 27.4 0.00 0.00 0.00 32 1013.5
20260503230517 18 0 17.7 30.6 0.00 0.00 0.00 32 1013.6
20260503225517 18 0 14.5 29.0 0.00 0.00 0.00 32 1013.4
20260503224538 18 338 16.1 25.7 0.00 0.00 0.00 32 1013.7
20260503223517 18 338 20.9 33.8 0.00 0.00 0.00 32 1013.4
20260503222517 18 0 19.3 35.4 0.00 0.00 0.00 32 1013.4
20260503221517 18 0 16.1 29.0 0.00 0.00 0.00 32 1013.6
20260503220517 18 338 19.3 30.6 0.00 0.00 0.00 32 1013.6
20260503215538 18 0 17.7 33.8 0.00 0.00 0.00 31 1013.7
20260503214538 18 0 16.1 33.8 0.00 0.00 0.00 31 1013.5
20260503213517 19 0 17.7 29.0 0.00 0.00 0.00 30 1013.8
20260503212517 19 0 16.1 27.4 0.00 0.00 0.00 30 1013.7
20260503211518 20 23 19.3 32.2 0.00 0.00 0.00 28 1013.8
20260503210538 20 0 16.1 29.0 0.00 0.00 0.00 26 1013.7
20260503205519 20 0 12.9 24.1 0.00 0.00 0.00 27 1013.9
20260503204518 20 338 11.3 22.5 0.00 0.00 0.00 27 1014.0
20260503203518 20 315 14.5 29.0 0.00 0.00 0.00 27 1014.2
20260503202518 20 315 11.3 20.9 0.00 0.00 0.00 29 1014.2
20260503201517 20 315 14.5 27.4 0.00 0.00 0.00 28 1014.6
20260503200517 20 23 17.7 27.4 0.00 0.00 0.00 28 1014.7
20260503195517 20 293 16.1 32.2 0.00 0.00 0.00 28 1014.9
20260503194517 19 338 16.1 33.8 0.00 0.00 0.00 28 1015.0
20260503193517 18 0 12.9 24.1 0.00 0.00 0.00 30 1014.8
20260503192517 18 338 17.7 29.0 0.00 0.00 0.00 29 1015.3
20260503191517 18 315 16.1 27.4 0.00 0.00 0.00 30 1015.2
20260503190518 18 0 16.1 37.0 0.00 0.00 0.00 30 1015.2
20260503185517 18 315 12.9 27.4 0.00 0.00 0.00 30 1015.4
20260503184517 18 338 14.5 33.8 0.00 0.00 0.00 30 1015.6
20260503183517 17 0 12.9 29.0 0.00 0.00 0.00 30 1015.5
20260503182517 17 338 14.5 27.4 0.00 0.00 0.00 32 1015.9
20260503181517 17 0 17.7 27.4 0.00 0.00 0.00 31 1016.1
20260503180518 17 338 14.5 25.7 0.00 0.00 0.00 30 1015.9
20260503175517 17 338 16.1 27.4 0.00 0.00 0.00 31 1016.0
20260503174517 17 338 12.9 25.7 0.00 0.00 0.00 31 1016.2
20260503173517 17 315 12.9 27.4 0.00 0.00 0.00 31 1016.2
20260503172516 17 338 14.5 24.1 0.00 0.00 0.00 31 1016.4
20260503171638 17 338 19.3 35.4 0.00 0.00 0.00 31 1017.1
20260503170517 17 0 17.7 32.2 0.00 0.00 0.00 32 1017.1
20260503150516 13 270 9.7 16.1 0.00 0.00 0.00 34 1017.3
20260503130516 8 248 6.4 11.3 0.00 0.00 0.00 41 1017.5
20260503110517 7 248 9.7 14.5 0.00 0.00 0.00 40 1017.9